#timestamp,LO_Frequency,Hit,StdDev 
1584401815.6,286047020.8,P
1584401835.4,286047023.6,P
1584401855.3,286047023.5,P
1584401875.1,286047023.3,Y
1584401895.9,286047000.5,P
1584401915.7,286047000.3,N
1584401935.5,286047002.8,N
1584401955.4,286047001.6,N
1584401975.2,286047002.8,N
1584401995.0,286047002.3,N
1584401995.9,286047002.3,N
1584402015.8,286047001.3,N
1584402035.6,286047004.2,N
1584402055.5,286047006.0,N
1584402075.3,286047006.0,N
1584402095.1,286047003.7,N
1584402115.9,286047004.3,N
1584402135.7,286047005.5,N
1584402155.5,286047005.7,N
1584402175.4,286047002.9,N
1584402195.2,286047005.6,N
1584402215.1,286047003.6,N
1584402216.0,286047003.6,N
1584402235.8,286047001.3,N
1584402255.6,286047003.6,N
1584402275.5,286047003.7,N
1584402295.3,286047003.8,N
1584402315.1,286047002.9,N
1584402335.9,286047005.0,N
1584402355.7,286047005.0,N
1584402375.6,286047006.7,N
1584402395.4,286047009.1,N
1584402415.2,286047008.3,N
1584402435.1,286047010.2,N
1584402436.0,286047010.2,Y
1584402455.8,286047004.6,P
1584402475.7,286047007.1,P
1584402495.5,286047004.8,P
1584402515.3,286047007.0,Y
1584402535.2,286047001.8,P
1584402555.0,286047004.2,N
1584402555.9,286047004.2,N
1584402575.7,286047003.1,N
1584402595.6,286047003.9,Y
1584402615.4,286046999.0,P
1584402635.3,286046998.8,N
1584402655.1,286046998.8,N
1584402656.0,286046998.8,N
1584402675.8,286047000.5,N
1584402695.7,286047000.4,N
1584402715.5,286047000.4,N
1584402735.3,286046998.4,N
1584402755.2,286047001.1,N
1584402775.0,286046999.3,N
1584402775.9,286046999.3,N
1584402795.8,286046999.6,N
1584402815.6,286046996.5,N
1584402835.4,286046996.6,N
1584402855.3,286046997.2,N
1584402875.1,286046997.2,N
1584402895.9,286046997.5,N
1584402915.7,286046995.1,N
1584402935.5,286046995.0,N
1584402955.4,286046997.6,N
1584402975.2,286046997.3,N
1584402995.0,286046997.8,N
1584402996.0,286046997.8,N
1584403015.8,286046996.6,N
1584403035.6,286046998.9,N
1584403055.5,286046998.4,N
1584403075.3,286046999.1,N
1584403095.1,286046999.5,N
1584403115.9,286046997.1,N
1584403135.7,286046999.4,N
1584403155.6,286046999.2,N
1584403175.4,286046999.4,N
1584403195.2,286046998.9,N
